This demonstration page uses our WeatherBlox Daily Observations layout. Learn more.

Left ArrowRight Arrow

Hourly Observations for May 26, 2020

Temp ( °F °C ) Dew Point ( °F °C ) Humidity (%) Winds ( mph kmh ) Pressure ( in mb ) Visibility ( mi km ) Precip ( " mm )
12:10 am 00:10 Cloudy with Nearby Thunderstorms 69 20.6 67 19.4 93 93 SSW 14 22 29.81 1010 10 16 0.01 0.25
12:23 am 00:23 Cloudy with Nearby Thunderstorms 67 19.4 65 18.3 93 93 S 32 52 29.83 1010 3 4 0.03 0.76
12:29 am 00:29 Cloudy with Strong Thunderstorms 66 18.9 64 17.8 93 93 S 22 35 29.82 1010 2 2 0.18 4.57
12:34 am 00:34 Cloudy with Thunderstorms 66 18.9 65 18.3 96 96 SSE 17 28 29.82 1010 3 5 0.20 5.08
12:45 am 00:45 Cloudy with Nearby Thunderstorms 66 18.9 65 18.3 96 96 SE 12 19 29.81 1009 5 8 0.25 6.35
12:52 am 00:52 Cloudy with Nearby Thunderstorms 66 18.9 65 18.3 96 96 SE 14 22 29.80 1009 5 8 0.28 7.11
1:02 am 01:02 Cloudy with Light Rain 66 18.9 65 18.3 96 96 SE 13 20 29.80 1009 10 16 0.02 0.51
1:52 am 01:52 Cloudy with Light Rain 67 19.4 65 18.3 93 93 SSE 13 20 29.78 1009 9 14 0.03 0.76
2:37 am 02:37 Cloudy with Light Rain 66 18.9 65 18.3 96 96 SE 15 24 29.77 1008 10 16 0.05 1.27
2:52 am 02:52 Cloudy with Light Rain 66 18.9 65 18.3 96 96 SE 16 26 29.76 1008 10 16 0.06 1.52
3:52 am 03:52 Mostly Cloudy with Light Rain 66 18.9 64 17.8 93 93 SE 10 17 29.73 1007 10 16 0.01 0.25
4:52 am 04:52 Cloudy 66 18.9 64 17.8 93 93 SE 16 26 29.71 1006 10 16 0.00 0.00
5:03 am 05:03 Cloudy 66 18.9 64 17.8 93 93 SE 17 28 29.71 1006 10 16 0.00 0.00
5:26 am 05:26 Cloudy with Light Rain 66 18.9 64 17.8 93 93 SE 17 28 29.70 1006 10 16 0.00 0.00
5:39 am 05:39 Cloudy 66 18.9 64 17.8 93 93 SE 15 24 29.71 1006 10 16 0.00 0.00
5:52 am 05:52 Cloudy 66 18.9 64 17.8 93 93 SSE 16 26 29.71 1006 10 16 0.00 0.00
6:52 am 06:52 Cloudy 67 19.4 65 18.3 93 93 SSE 15 24 29.71 1006 10 16 0.00 0.00
7:52 am 07:52 Cloudy 68 20 65 18.3 90 90 SSE 16 26 29.71 1006 10 16 0.00 0.00
8:52 am 08:52 Cloudy 69 20.6 64 17.8 84 84 SSE 22 35 29.73 1007 10 16 0.00 0.00
9:50 am 09:50 Cloudy 70 21 66 19 88 88 S 18 30 29.75 1007 10 16 0.00 0.00
9:52 am 09:52 Cloudy 69 20.6 66 18.9 90 90 S 18 30 29.76 1008 10 16 0.00 0.00
10:38 am 10:38 Cloudy with Light Rain 70 21.1 67 19.4 90 90 S 15 24 29.77 1008 9 14 0.00 0.00
10:52 am 10:52 Cloudy with Light Rain 69 20.6 66 18.9 90 90 S 17 28 29.78 1009 8 13 0.00 0.00
11:52 am 11:52 Cloudy 70 21.1 66 18.9 87 87 S 14 22 29.80 1009 10 16 0.03 0.76
12:06 pm 12:06 Cloudy 71 21.7 66 18.9 84 84 SSW 15 24 29.80 1009 10 16 0.00 0.00
12:43 pm 12:43 Cloudy with Light Rain 69 20.6 64 17.8 84 84 SSW 15 24 29.80 1009 10 16 0.00 0.00
12:52 pm 12:52 Cloudy with Light Rain 70 21.1 65 18.3 84 84 SSW 14 22 29.82 1010 10 16 0.00 0.00
1:52 pm 13:52 Cloudy with Light Rain 68 20 63 17.2 84 84 SW 14 22 29.83 1010 7 11 0.00 0.00
2:52 pm 14:52 Mostly Sunny 74 23.3 64 17.8 71 71 SW 14 22 29.82 1010 10 16 0.00 0.00
3:52 pm 15:52 Mostly Cloudy 74 23.3 62 16.7 67 67 SSW 16 26 29.82 1010 10 16 0.00 0.00
4:52 pm 16:52 Cloudy 72 22.2 64 17.8 76 76 WSW 10 17 29.81 1010 10 16 0.00 0.00
5:52 pm 17:52 Sunny 74 23.3 64 17.8 71 71 W 12 19 29.82 1010 10 16 0.00 0.00
6:52 pm 18:52 Mostly Sunny 72 22.2 63 17.2 73 73 WSW 9 15 29.83 1010 10 16 0.00 0.00
7:52 pm 19:52 Partly Cloudy 70 21.1 62 16.7 76 76 WSW 7 11 29.83 1010 10 16 0.00 0.00
8:52 pm 20:52 Cloudy 69 20.6 62 16.7 78 78 SW 3 6 29.85 1011 10 16 0.00 0.00
9:52 pm 21:52 Mostly Cloudy 68 20 62 16.7 81 81 SSW 3 6 29.87 1011 10 16 0.00 0.00
10:52 pm 22:52 Cloudy 67 19.4 63 17.2 87 87 WSW 3 6 29.87 1012 10 16 0.00 0.00
11:52 pm 23:52 Mostly Cloudy 67 19.4 63 17.2 87 87 Calm 29.86 1011 10 16 0.00 0.00

Powered by AerisWeather